Cloud_Cover
0 4 96 100 100 100 98 10 63 24 36 5 5 2 5 7 14 0 0 0 0 3 4 0 0 0 10 10 5 4 5 10 5 5 5 56 57 23 30 36 83 98 92
0 0 0 66 54 100 100 79 64 5 5 5 5 5 5 5 44 19 2 0 0 0 3 5 6 8 24 3 8 8 12 5 5 3 5 1 4 5 5 5 5 8 3
0 0 0 0 5 5 21 99 84 52 54 95 6 2 0 1 77 47 0 0 0 0 0 2 5 4 9 0 6 20 13 1 1 88 0 0 2 1 0 0 0 0 23
0 0 0 0 0 4 5 5 53 100 100 100 78 4 0 73 5 15 18 0 0 0 0 0 1 2 2 2 3 0 13 0 0 0 0 0 0 4 10 5 70 94 92
0 0 0 0 0 0 0 0 39 5 86 85 33 5 4 10 88 30 62 0 0 0 0 0 0 0 0 0 0 0 0 0 0 0 5 19 6 17 99 88 21 31 92
0 0 0 0 0 0 0 0 0 2 5 52 5 0 3 5 2 5 18 5 3 0 0 0 0 0 0 0 0 0 1 0 0 8 7 10 39 24 95 31 22 8 10
0 0 0 0 0 0 0 0 0 0 0 0 9 5 3 0 5 5 5 5 5 3 0 2 3 0 0 0 0 0 0 0 4 30 14 94 99 20 5 3 14 11 20
0 0 0 0 0 0 0 0 0 0 0 0 1 48 5 5 5 5 5 5 5 5 4 0 0 0 0 41 0 0 0 0 15 34 100 49 89 28 4 0 0 0 1
0 0 0 0 0 0 0 0 0 0 0 0 0 5 9 100 88 38 7 51 5 5 66 7 5 0 0 0 0 0 0 0 13 55 71 100 100 67 0 0 0 0 0
0 0 0 0 0 0 0 0 0 0 0 0 0 0 36 100 100 100 83 7 98 31 79 100 84 5 4 0 5 0 0 0 42 79 100 100 100 0 0 0 0 0 0
0 0 0 0 0 0 0 0 0 0 0 1 0 0 0 32 100 100 100 98 22 94 65 53 100 65 5 6 3 0 4 2 0 92 100 12 14 0 0 4 1 0 0
0 0 0 0 0 0 0 0 0 0 0 0 0 0 0 0 4 99 96 100 100 99 100 100 100 98 5 6 33 8 27 7 2 2 14 4 0 4 7 5 5 0 1
5 4 0 0 0 0 0 0 0 0 1 22 9 1 0 1 0 0 84 95 42 100 100 100 100 99 12 6 6 58 72 81 30 5 4 5 1 5 11 5 5 5 4
5 5 0 0 0 0 0 0 0 0 5 45 54 69 56 37 22 20 20 25 100 63 95 100 100 100 100 99 64 28 10 13 6 10 46 93 6 13 83 67 12 33 15
14 1 0 0 0 0 0 0 0 3 0 1 0 51 100 100 99 88 53 63 62 100 74 85 100 100 100 100 100 100 99 86 100 96 100 93 5 47 94 51 79 96 68
5 5 5 5 0 0 0 0 0 0 1 2 4 0 68 83 99 100 100 100 96 60 100 100 100 100 100 100 100 100 100 98 100 100 100 100 100 99 100 36 98 100 100
4 4 5 2 0 0 0 0 0 0 29 37 29 23 18 100 100 100 100 100 100 98 72 100 100 100 100 100 100 100 100 100 100 100 100 100 100 100 100 100 100 100 100
0 0 0 0 0 0 0 0 0 11 37 50 53 13 11 100 100 92 100 100 98 100 57 100 100 100 100 100 100 100 100 100 100 100 100 100 100 100 100 100 100 100 100
0 0 0 0 0 0 0 23 3 0 6 36 45 67 99 99 100 76 11 100 100 100 100 83 100 92 100 100 100 100 93 100 100 100 100 100 100 100 100 100 100 100 100
0 0 0 0 0 0 29 48 62 45 56 92 55 16 0 9 50 99 49 2 72 100 100 100 78 100 100 100 100 100 98 96 100 100 100 100 100 100 100 100 100 100 100
0 0 0 0 0 67 100 100 100 100 89 81 37 55 45 10 0 0 0 0 0 92 100 93 100 100 100 100 100 100 100 98 100 100 100 100 100 100 100 100 100 100 100
0 0 0 0 0 92 100 100 92 89 22 0 0 48 84 96 42 21 24 28 0 9 80 100 98 100 100 100 100 100 100 100 100 100 100 100 100 100 100 100 100 100 100
3 0 0 0 0 82 100 100 100 100 45 50 26 60 72 90 100 76 24 50 55 19 18 85 92 99 100 100 100 100 100 100 100 100 100 100 100 100 100 100 100 100 100
97 8 5 0 0 26 79 100 94 56 94 4 0 2 44 33 85 100 77 45 19 21 23 44 91 100 100 100 100 100 100 100 100 100 100 100 100 100 100 100 100 100 29
100 100 6 5 2 13 39 72 95 89 79 60 71 98 90 29 38 92 100 100 77 25 1 27 100 95 99 100 100 100 100 100 100 100 100 100 100 100 94 100 100 96 98
100 100 100 30 9 10 35 83 100 100 73 100 99 100 100 100 100 100 100 100 100 42 21 29 93 100 98 100 100 100 100 100 100 100 100 100 100 100 100 100 100 75 100